GW5568 Weather Reports


time (UTC)temp
C
wind
direction
speed
KPH
gust
KPH
rain 1hr
cm
rain 24hr
cm
rain mn
cm
humidity
%
barometer
mb
20260506033105 16 0 0.0 0.0 0.00 0.00 0.00 76 1015.5
20260506031557 17 0 0.0 0.0 0.00 0.00 0.00 76 1015.3
20260506030052 17 0 0.0 1.6 0.00 0.00 0.00 75 1015.1
20260506024556 17 0 0.0 0.0 0.00 0.00 0.00 72 1015.0
20260506023057 18 0 0.0 0.0 0.00 0.00 0.00 71 1015.0
20260506021556 18 0 0.0 0.0 0.00 0.00 0.00 71 1015.0
20260506020100 18 0 0.0 0.0 0.00 0.00 0.00 71 1015.0
20260506014604 18 0 0.0 0.0 0.00 0.00 0.00 70 1014.9
20260506013054 18 0 0.0 0.0 0.00 0.00 0.00 71 1014.9
20260506011556 18 0 0.0 0.0 0.00 0.00 0.00 72 1014.9
20260506010055 18 0 0.0 0.0 0.00 0.00 0.00 71 1014.9
20260506004559 18 0 0.0 0.0 0.00 0.00 0.00 70 1014.9
20260506003052 19 0 0.0 0.0 0.00 0.00 0.00 68 1015.0
20260506001609 18 0 0.0 0.0 0.00 0.00 0.00 69 1015.0
20260506000100 18 0 0.0 0.0 0.00 0.00 0.00 69 1015.2
20260505234559 18 0 0.0 0.0 0.00 0.00 0.00 69 1015.4
20260505233058 18 0 0.0 0.0 0.00 0.00 0.00 70 1015.4
20260505231555 18 0 0.0 0.0 0.00 0.00 0.00 70 1015.5
20260505230105 17 0 0.0 0.0 0.00 0.00 0.00 71 1015.6
20260505224552 17 0 0.0 1.6 0.00 0.00 0.00 72 1015.8
20260505223057 17 0 0.0 0.0 0.00 0.00 0.00 73 1015.9
20260505221554 17 0 0.0 0.0 0.00 0.00 0.00 73 1016.1
20260505220053 17 0 0.0 0.0 0.00 0.00 0.00 72 1016.2
20260505214605 17 0 0.0 0.0 0.00 0.00 0.00 71 1016.1
20260505213100 17 0 0.0 0.0 0.00 0.00 0.00 72 1016.2
20260505211602 17 0 0.0 0.0 0.00 0.00 0.00 71 1016.2
20260505210104 17 0 0.0 1.6 0.00 0.00 0.00 71 1016.4
20260505204555 17 0 0.0 0.0 0.00 0.00 0.00 71 1016.4
20260505203054 17 0 0.0 1.6 0.00 0.00 0.00 72 1016.5
20260505201604 17 0 0.0 0.0 0.00 0.00 0.00 73 1016.6
20260505200058 17 0 0.0 0.0 0.00 0.00 0.00 74 1016.6
20260505194601 17 0 0.0 0.0 0.00 0.00 0.00 73 1016.6
20260505193058 17 0 0.0 0.0 0.00 0.00 0.00 74 1016.6
20260505191605 16 0 0.0 0.0 0.00 0.00 0.00 74 1016.6
20260505190116 16 0 0.0 1.6 0.00 0.00 0.00 75 1016.7
20260505184605 16 0 0.0 0.0 0.00 0.00 0.00 76 1016.6
20260505183057 15 0 0.0 0.0 0.00 0.00 0.00 78 1016.6
20260505181558 15 0 0.0 0.0 0.00 0.00 0.00 80 1016.6
20260505180058 15 0 0.0 1.6 0.00 0.00 0.00 80 1016.6
20260505174552 15 0 0.0 0.0 0.00 0.00 0.00 81 1016.6
20260505173053 14 0 0.0 0.0 0.00 0.00 0.00 81 1016.5
20260505171557 13 0 0.0 0.0 0.00 0.00 0.00 83 1016.4
20260505170105 13 0 0.0 0.0 0.00 0.00 0.00 83 1016.5
20260505164551 13 0 0.0 0.0 0.00 0.00 0.00 84 1016.3
20260505163058 13 0 0.0 0.0 0.00 0.00 0.00 85 1016.3
20260505161551 13 0 0.0 0.0 0.00 0.00 0.00 87 1016.2
20260505153107 12 0 0.0 0.0 0.00 0.00 0.00 88 1016.2
20260505151557 12 0 0.0 0.0 0.00 0.00 0.00 88 1016.1
20260505150114 12 0 0.0 0.0 0.00 0.00 0.00 87 1016.0
20260505140105 12 0 0.0 0.0 0.00 0.00 0.00 86 1015.6
20260505124605 12 0 0.0 0.0 0.00 0.00 0.00 86 1015.3
20260505123111 12 0 0.0 0.0 0.00 0.00 0.00 86 1015.2
20260505121556 12 0 0.0 0.0 0.00 0.00 0.00 86 1015.1
20260505120059 12 0 0.0 0.0 0.00 0.00 0.00 86 1015.1
20260505114600 12 0 0.0 0.0 0.00 0.00 0.00 87 1015.1
20260505113058 12 0 0.0 0.0 0.00 0.00 0.00 87 1014.9
20260505111559 12 0 0.0 0.0 0.00 0.00 0.00 87 1014.9
20260505101554 12 0 0.0 0.0 0.00 0.00 0.00 88 1014.5
20260505100100 12 0 0.0 0.0 0.00 0.00 0.00 88 1014.5
20260505094552 12 0 0.0 0.0 0.00 0.00 0.00 88 1014.4
20260505093051 12 0 0.0 0.0 0.00 0.00 0.00 88 1014.3
20260505091610 12 0 0.0 0.0 0.00 0.00 0.00 87 1014.2
20260505090106 12 0 0.0 0.0 0.00 0.00 0.00 87 1014.1
20260505084555 12 0 0.0 0.0 0.00 0.00 0.00 87 1014.0
20260505083106 12 0 0.0 0.0 0.00 0.00 0.00 87 1014.1
20260505081552 12 0 0.0 0.0 0.00 0.00 0.00 87 1014.0
20260505080056 12 0 0.0 0.0 0.00 0.00 0.00 87 1013.7
20260505074551 12 0 0.0 0.0 0.00 0.00 0.00 86 1013.7
20260505073058 12 0 0.0 0.0 0.00 0.00 0.00 86 1013.5
20260505071551 12 0 0.0 0.0 0.00 0.00 0.00 85 1013.3
20260505070057 12 0 0.0 0.0 0.00 0.00 0.00 85 1013.1
20260505064556 13 0 0.0 0.0 0.00 0.00 0.00 84 1013.0
20260505063054 13 0 0.0 0.0 0.00 0.00 0.00 83 1013.0
20260505061604 13 0 0.0 0.0 0.00 0.00 0.00 82 1013.0
20260505060055 13 0 0.0 0.0 0.00 0.00 0.00 81 1012.9
20260505054558 13 0 0.0 0.0 0.00 0.00 0.00 81 1012.9
20260505053103 14 0 0.0 0.0 0.00 0.00 0.00 80 1012.8
20260505051552 14 0 0.0 0.0 0.00 0.00 0.00 79 1012.7
20260505050127 15 0 0.0 0.0 0.00 0.00 0.00 79 1012.6
20260505041602 16 0 0.0 1.6 0.00 0.00 0.00 76 1011.7
20260505040101 16 0 0.0 0.0 0.00 0.00 0.00 75 1011.5
20260505034557 17 0 0.0 0.0 0.00 0.00 0.00 73 1011.3